TIME,DELAY(SENSOR),PRES,OXYGEN,RAWTEMP,T(OPTODE),TCPHASE,FLUOR,BETA(BETA700),BETA(BETA412),BETA(BETA440),CDOM,C(CSC),ED(ED411.90),ED(ED443.80),ED(ED489.40),ED(ED554.70),LU(LU412.20),LU(LU443.80),LU(LU489.40),LU(LU555.00),COMP,TILTX,TILTY,CHECK
1342652643,5800,872.5300292968750000,176.3907012939453000,464.0795898437500000,9.0004091262817380,39.3960418701171900,51,105,102,83,75,15419,2147445476,2147792612,2147580644,2147829065,2147308955,2147450048,2147750619,2148270262,1107,6,14,35264
1342656239,5805,7.9000000953674320,213.4871063232422000,528.4528808593750000,6.9866638183593750,38.1633186340332000,51,109,104,82,76,15415,2147434258,2147797568,2147585216,2147832338,2147306715,2147447369,2147769453,2148278930,1101,6,14,46695
1342659839,5803,976.0000000000000000,223.9544982910156200,538.6190795898438000,6.6659998893737790,37.7565307617187500,51,108,102,83,74,15417,2147433179,2147801600,2147584914,2147834788,2147309668,2147446784,2147767606,2148275373,3553,6,14,507
1342663439,5804,1065.0000000000000000,226.3802032470703000,540.1727294921875000,6.6169300079345700,37.6521606445312500,51,112,102,84,76,15413,2147428992,2147799012,2147585069,2147837037,2147306084,2147442761,2147765138,2148278884,499,6,15,49601
1342667039,5804,1032.0000000000000000,226.8796997070312500,541.0900268554688000,6.5879459381103520,37.6419906616210940,51,104,103,82,75,15409,2147427328,2147799222,2147587757,2147837065,2147305728,2147445961,2147768155,2148278354,3512,6,15,19042
1342670639,5806,106.0000000000000000,227.9425048828125000,542.5170288085938000,6.5428471565246580,37.6100692749023440,52,112,103,83,76,15410,2147427163,2147798445,2147583076,2147836379,2147304676,2147445092,2147767588,2148280576,3455,6,15,62424
1342674239,5804,11.6999998092651370,228.2803039550781200,541.6522216796875000,6.5701789855957030,37.5764617919921900,51,105,103,84,76,15409,2147430189,2147801225,2147585609,2147836132,2147304192,2147447469,2147768594,2148280146,573,6,14,36362
1342677839,5803,11.3999996185302730,228.1847991943359400,543.1146240234375000,6.5239520072937010,37.6075897216796900,51,106,104,82,76,15408,2147430454,2147797897,2147586980,2147835602,2147304795,2147449243,2147768658,2148280082,3377,6,15,24611
1342681439,5805,1160.0000000000000000,229.6094970703125000,543.1987915039062000,6.5212922096252440,37.5325508117675800,51,105,101,83,77,15402,2147433526,2147799122,2147588269,2147835163,2147306697,2147447213,2147763803,2148284324,0,6,14,58577
1342685039,5804,1152.0000000000000000,228.4282073974609400,543.2382202148438000,6.5200481414794920,37.5967903137207000,51,104,102,82,75,15403,2147431652,2147796818,2147587428,2147836589,2147302656,2147443995,2147769270,2148280466,3574,6,15,2570
1342688639,5804,10.8000001907348630,228.8932037353515600,544.7548217773438000,6.4720897674560550,37.5996398925781250,50,105,103,84,76,15400,2147430564,2147802825,2147587867,2147833636,2147301952,2147448027,2147768978,2148279570,2961,6,14,37562
1342692239,5802,10.6000003814697270,231.5794982910156200,545.5601806640625000,6.4466109275817870,37.4702491760253900,52,104,102,83,77,15400,2147428662,2147800420,2147588379,2147835968,2147305773,2147446930,2147767689,2148281499,202,6,14,51313
1342695839,5804,1062.0000000000000000,231.4506988525390600,546.1708984375000000,6.4272918701171875,37.4880485534668000,51,109,103,82,76,15399,2147429037,2147800804,2147590272,2147837476,2147306148,2147447616,2147766793,2148278208,78,6,14,54359
1342699439,5806,11.0000000000000000,231.8258056640625000,546.4290771484375000,6.4191231727600100,37.4729995727539060,52,107,104,83,76,15400,2147428699,2147798710,2147587776,2147834194,2147301869,2147448457,2147768630,2148280164,67,6,14,21317
1342703039,5804,12.3999996185302730,231.6777954101562500,544.0723876953125000,6.4936680793762210,37.4385604858398440,50,104,103,82,76,15398,2147432146,2147801517,2147589952,2147834614,2147302363,2147447296,2147767277,2148279926,444,6,15,3860
1342706639,5805,1211.0000000000000000,228.3522033691406200,543.8253784179688000,6.5014801025390625,37.6117897033691400,52,105,102,81,75,15399,2147430281,2147801088,2147587382,2147833755,2147300589,2147446912,2147768987,2148282569,257,6,15,15994
1342710239,5804,11.8000001907348630,229.2864990234375000,543.3792724609375000,6.5155849456787110,37.5533409118652340,51,107,103,83,77,15397,2147430848,2147800996,2147587867,2147834715,2147304274,2147450578,2147767414,2148280493,3413,6,15,48445
1342713839,5805,10.3999996185302730,227.8204040527343800,544.2849731445312000,6.4869461059570310,37.6490211486816400,51,106,102,82,76,15396,2147429595,2147801133,2147587136,2147834148,2147305170,2147445952,2147768301,2148282093,252,6,14,36127
1342717439,5803,10.0000000000000000,230.1716003417968800,543.2783813476562000,6.5187759399414060,37.5039482116699200,50,104,109,83,76,15396,2147432164,2147798930,2147588022,2147834404,2147305170,2147447835,2147762486,2148280612,3244,6,15,3050
1342721039,5804,10.1000003814697270,229.2489929199218800,543.2858276367188000,6.5185389518737790,37.5539894104003900,51,106,102,83,77,15396,2147430144,2147799195,2147585865,2147837531,2147305206,2147447698,2147767067,2148279158,237,6,15,59610
1342724639,5803,1024.0000000000000000,229.4748992919922000,544.4506835937500000,6.4817070960998535,37.5623092651367200,51,106,103,82,76,15392,2147424969,2147796041,2147587958,2147835922,2147306358,2147446957,2147767030,2148281636,3233,6,14,32005
1342728239,5804,12.1000003814697270,229.4356994628906200,544.1046752929688000,6.4926471710205080,37.5587196350097660,50,112,101,82,76,15390,2147431579,2147799277,2147586413,2147834706,2147306441,2147449947,2147769325,2148280036,3461,6,14,19262
1342731839,5803,12.6999998092651370,231.6705017089843800,546.3555297851562000,6.4214520454406740,37.4800682067871100,51,108,104,81,77,15391,2147426176,2147800411,2147589275,2147837184,2147303670,2147445897,2147766582,2148280054,209,6,15,29844
1342735439,5805,10.1000003814697270,231.5099029541015600,545.1043090820312000,6.4610328674316410,37.4662590026855500,52,107,103,83,76,15391,2147429787,2147802441,2147588224,2147831872,2147309293,2147450048,2147768292,2148281782,379,6,14,29242
1342739039,5803,12.1999998092651370,232.2337036132812500,547.3333740234375000,6.3905072212219240,37.4675407409668000,51,112,103,82,77,15391,2147431789,2147802550,2147591899,2147834761,2147305179,2147446628,2147770368,2148282697,3042,6,14,37300
1342742639,5804,11.6000003814697270,233.0782012939453000,547.1917114257812000,6.3949909210205080,37.4205589294433600,50,106,104,83,76,15390,2147431533,2147800402,2147586678,2147834596,2147306733,2147446646,2147770587,2148280905,286,6,15,59238
1342746239,5806,10.5000000000000000,232.4391937255859400,547.4912719726562000,6.3855090141296390,37.4600410461425800,52,106,103,82,76,15390,2147430546,2147801097,2147588864,2147838930,2147304548,2147445869,2147770505,2148281718,3559,6,15,24961
1342749839,5802,1244.0000000000000000,233.4629058837890600,547.1417846679688000,6.3965678215026855,37.3997497558593750,50,107,102,83,77,15387,2147430473,2147798619,2147586404,2147835483,2147307565,2147446244,2147769472,2148277824,1331,6,15,51304
1342753439,5805,12.1999998092651370,233.0574035644531200,546.3873291015625000,6.4204459190368650,37.4074592590332000,50,113,104,84,76,15389,2147428324,2147800914,2147588809,2147836242,2147306020,2147443053,2147772480,2148283282,855,6,14,586
1342757039,5805,1069.0000000000000000,231.3040924072265600,546.1270751953125000,6.4286770820617680,37.4957618713378900,51,105,104,83,76,15390,2147435648,2147799917,2147588598,2147835392,2147306770,2147443977,2147766217,2148281398,3465,6,15,62923
1342760639,5800,1087.0000000000000000,231.9750061035156200,546.1129760742188000,6.4291248321533200,37.4591903686523440,51,103,102,82,76,15387,2147433289,2147799881,2147587757,2147834651,2147305353,2147448850,2147768009,2148281563,3162,6,15,28586
1342764239,5806,12.0000000000000000,231.0036010742187500,545.9473876953125000,6.4343619346618650,37.5082206726074200,51,106,102,83,76,15387,2147430226,2147803044,2147588470,2147836342,2147306971,2147448969,2147769764,2148279908,302,6,15,45253
1342767839,5805,1303.0000000000000000,230.0937957763672000,545.9335937500000000,6.4347991943359375,37.5561790466308600,51,107,102,81,76,15384,2147432384,2147801846,2147590016,2147837184,2147305051,2147446811,2147764900,2148283181,3452,6,15,57186
1342771439,5805,12.0000000000000000,231.5104064941406200,546.6798706054688000,6.4111838340759280,37.4945907592773440,51,107,102,83,77,15383,2147430354,2147801069,2147590400,2147835419,2147304018,2147446802,2147772214,2148281536,2814,6,15,51938
1342775039,5805,1277.0000000000000000,231.5816040039062500,546.7202758789062000,6.4099059104919430,37.4916496276855500,51,105,104,82,77,15384,2147432402,2147801060,2147590336,2147837092,2147308288,2147447268,2147768301,2148281024,329,6,15,65355
1342778639,5802,12.3999996185302730,231.8209991455078000,546.7608032226562000,6.4086270332336430,37.4797515869140600,50,105,103,83,76,15359,2147433216,2147799113,2147586541,2147837430,2147306706,2147446665,2147770633,2148279469,576,6,15,51142
1342782239,5801,12.8999996185302730,233.7324981689453000,548.3217163085938000,6.3592238426208500,37.4067802429199200,50,107,102,88,76,15359,2147428580,2147802368,2147587456,2147837421,2147305417,2147443510,2147767305,2148282422,2904,6,14,24420
1342785839,5802,12.6999998092651370,234.0765991210937500,549.9141235351562000,6.3088040351867680,37.4179496765136700,51,105,102,82,77,15356,2147432109,2147800722,2147588342,2147840118,2147306020,2147446930,2147771949,2148280777,3277,6,15,20031
1342789439,5805,10.5000000000000000,233.3383026123047000,546.9586791992188000,6.4023628234863280,37.4026489257812500,51,105,103,83,76,15374,2147430080,2147801170,2147590034,2147837074,2147302692,2147442422,2147768493,2148280594,2951,6,15,54403
1342792256,5802,1044.0000000000000000,232.8036041259765600,546.2999877929688000,6.4232082366943360,37.4195709228515600,50,138,102,82,77,15374,2147431369,2147797522,2147586102,2147836086,2147306002,2147449993,2147765787,2148281938,3103,6,14,48651
